Location: Pasarilla del Rebollar
(40.6790°N, 5.0062°W)
Time: 08:42:19
(UTC+00:00)

BREEZE-M DEB (TANK) - Pass Details

Date: 22 April 2026
Orbit: 324 x 11636 km, 49.6° (Epoch: 13 May)

Event Time Altitude Azimuth Distance (km) Brightness Sun altitude
Exits shadow 03:31:15 33° 234° (SW) 2,002 4.3 -20.9°
Maximum altitude 03:34:39 87° 146° (SE) 858 2.9 -20.4°
Drops below altitude 10° 03:38:09 10° 58° (ENE) 1,763 5.9 -19.9°
Sets 03:39:32 0° 58° (ENE) 2,409 7.0 -19.7°
